Weather History for KANJ - September, 2013

Change the Weather History Date:

Tuesday, September 24, 2013

  Actual Average Record
Temperature  
Mean Temperature 54 °F 54 °F  
Max Temperature 65 °F 63 °F 88 °F (1892)
Min Temperature 42 °F 45 °F 28 °F (1980)
Degree Days  
Heating Degree Days 11 11  
Month to date heating degree days 209 179  
Since 1 July heating degree days 325 326  
Cooling Degree Days 0 0  
Month to date cooling degree days 14 15  
Year to date cooling degree days 266 193  
Growing Degree Days 4 (Base 50)    
Moisture  
Dew Point 45 °F    
Average Humidity 76    
Maximum Humidity 100    
Minimum Humidity 52    
Precipitation  
Precipitation 0.00 in 0.13 in 1.37 in (1996)
Month to date precipitation 6.59 3.04  
Year to date precipitation 34.88 22.21  
Sea Level Pressure  
Sea Level Pressure 30.12 in    
Wind  
Wind Speed 3 mph (East)    
Max Wind Speed 9 mph    
Max Gust Speed 15 mph    
Visibility 8 miles    
Events Fog    
T = Trace of Precipitation, MM = Missing Value Source: NWS Daily Summary

Daily Weather History Graph

Daily Weather History Graph

Search for Another Location

Airport or City:

Trip Planner

Search our weather history database for the weather conditions in past years. The results will help you decide how hot, cold, wet, or windy it might be!

Date:

Astronomy

Sep. 24, 2013 Rise Set
Actual Time 7:27 AM EDT 7:30 PM EDT
Civil Twilight 6:57 AM EDT 8:00 PM EDT
Nautical Twilight 6:21 AM EDT 8:35 PM EDT
Astronomical Twilight 5:45 AM EDT 9:11 PM EDT
Moon 10:29 PM EDT (9/24) 12:58 PM EDT (9/24)
Length of Visible Light 13h 03m
Length of Day
12h 03m
Waning Gibbous, 73% of the Moon is Illuminated
Sep 24
Waning Gibbous
Sep 26
Last Quarter
Oct 4
New
Oct 11
First Quarter
Oct 18
Full

Hourly Weather History & Observations

Time (EDT) Temp. Windchill Dew Point Humidity Pressure Visibility Wind Dir Wind Speed Gust Speed Precip Events Conditions
12:55 AM 45.0 °F 42.6 °F 43.0 °F 93% 30.15 in 10.0 mi ENE 4.6 mph - N/A   Clear
1:55 AM 44.1 °F 42.5 °F 42.1 °F 93% 30.15 in 10.0 mi ENE 3.5 mph - N/A   Clear
2:55 AM 43.0 °F 41.3 °F 42.1 °F 97% 30.15 in 10.0 mi NE 3.5 mph - N/A   Clear
3:55 AM 43.0 °F 41.3 °F 41.0 °F 93% 30.15 in 10.0 mi ENE 3.5 mph - N/A   Clear
4:55 AM 43.0 °F 40.3 °F 41.0 °F 93% 30.15 in 10.0 mi NE 4.6 mph - N/A   Clear
5:55 AM 42.1 °F 39.2 °F 41.0 °F 96% 30.16 in 10.0 mi ENE 4.6 mph - N/A   Clear
6:55 AM 42.1 °F 39.2 °F 41.0 °F 96% 30.17 in 10.0 mi East 4.6 mph - N/A   Clear
7:34 AM 43.0 °F - 41.0 °F 93% 30.16 in 6.0 mi Calm Calm - N/A   Scattered Clouds
7:41 AM 42.1 °F 40.2 °F 41.0 °F 96% 30.16 in 2.5 mi East 3.5 mph - N/A   Mostly Cloudy
7:55 AM 42.1 °F 39.2 °F 41.0 °F 96% 30.17 in 1.2 mi East 4.6 mph - N/A   Overcast
8:05 AM 43.0 °F 41.3 °F 42.1 °F 97% 30.17 in 0.2 mi East 3.5 mph - N/A Fog Fog
8:55 AM 44.1 °F 41.5 °F 43.0 °F 96% 30.18 in 0.2 mi East 4.6 mph - N/A Fog Fog
9:55 AM 46.9 °F - 46.0 °F 97% 30.18 in 0.2 mi Calm Calm - N/A Fog Fog
10:55 AM 50.0 °F - 48.9 °F 96% 30.17 in 3.0 mi East 3.5 mph - N/A   Overcast
11:28 AM 53.1 °F - 51.1 °F 93% 30.15 in 10.0 mi Variable 3.5 mph - N/A   Scattered Clouds
11:55 AM 57.0 °F - 48.9 °F 74% 30.14 in 10.0 mi Variable 3.5 mph - N/A   Partly Cloudy
12:55 PM 61.0 °F - 48.0 °F 62% 30.13 in 10.0 mi Variable 4.6 mph - N/A   Clear
1:55 PM 62.1 °F - 46.9 °F 58% 30.11 in 10.0 mi Variable 3.5 mph - N/A   Clear
2:55 PM 63.0 °F - 46.0 °F 54% 30.09 in 10.0 mi ESE 4.6 mph - N/A   Clear
3:55 PM 64.0 °F - 46.0 °F 52% 30.07 in 10.0 mi ENE 4.6 mph - N/A   Clear
4:55 PM 64.9 °F - 46.9 °F 52% 30.05 in 10.0 mi Variable 3.5 mph - N/A   Clear
5:55 PM 63.0 °F - 46.0 °F 54% 30.06 in 10.0 mi SE 6.9 mph - N/A   Clear
6:55 PM 61.0 °F - 46.0 °F 58% 30.06 in 10.0 mi SE 4.6 mph - N/A   Clear
7:55 PM 57.0 °F - 46.0 °F 67% 30.06 in 10.0 mi SSE 4.6 mph - N/A   Clear
8:55 PM 54.0 °F - 45.0 °F 72% 30.06 in 10.0 mi South 4.6 mph - N/A   Clear
9:55 PM 51.1 °F - 45.0 °F 80% 30.06 in 10.0 mi Calm Calm - N/A   Clear
10:55 PM 46.9 °F - 44.1 °F 90% 30.05 in 10.0 mi Calm Calm - N/A   Clear
11:55 PM 46.9 °F - 43.0 °F 86% 30.04 in 10.0 mi Calm Calm - N/A   Clear